AirNav  
 
 519 users online  

5FL0 Dusty Airpatch Airport
Dade City, Florida, USA

GOING TO DADE CITY?


FAA INFORMATION EFFECTIVE 04 JANUARY 2018

Location

FAA Identifier: 5FL0
Lat/Long: 28-24-47.0000N / 082-13-24.3000W
28-24.783333N / 082-13.405000W
28.4130556 / -82.2234167
(estimated)
Elevation: 120 ft. / 37 m (estimated)
Variation: 03W (1995)
From city: 3 miles NW of DADE CITY, FL
Time zone: UTC -5 (UTC -4 during Daylight Saving Time)
Zip code: 33523

Airport Operations

Airport use: Private use. Permission required prior to landing
Activation date: 11/1999
Control tower: no
ARTCC: MIAMI CENTER
FSS: MIAMI FLIGHT SERVICE STATION
Attendance: UNATNDD
Wind indicator: yes
Segmented circle: no

Airport Communications

WX ASOS at ZPH (12 nm S): 118.975 (813-780-0031)
WX ASOS at BKV (13 nm W): 134.725 (352-799-5881)

Nearby radio navigation aids

VOR radial/distance  VOR name  Freq  Var
LALr336/27.9LAKELAND VORTAC116.0001E
PIEr044/38.9ST PETERSBURG VORTAC116.4005W

 
NDB name  Hdg/Dist  Freq  Var  ID
LEESBURG226/32.733504WLEE .-.. . .

Airport Services

Runway Information

Runway 18/36

Dimensions: 1534 x 100 ft. / 468 x 30 m
Surface: turf, in good condition
Runway edge markings: RY 18/36 MKD WITH TIRES.
RUNWAY 18  RUNWAY 36
Traffic pattern: rightleft
Obstructions: none30 ft. trees, 10 ft. from runway

Airport Ownership and Management from official FAA records

Ownership: Privately-owned
Owner: HERBERT W. RHODE
35731 BLANTON ROAD
DADE CITY, FL 33523-6352
Phone 352-521-3919
Manager: HERBERT W. RHODE
35731 BLANTON ROAD
DADE CITY, FL 33523-6352
Phone 352-521-3919

Airport Operational Statistics

Aircraft based on the field: 1
Single engine airplanes: 1
    

Additional Remarks

220 FT TO 423 FT RADIO TOWERS ALL QUADRANTS AT A DISTANCE OF 1 TO 3 NM FROM ARPT.

Instrument Procedures

There are no published instrument procedures at 5FL0.

Some nearby airports with instrument procedures:

KZPH - Zephyrhills Municipal Airport (12 nm S)
KBKV - Brooksville-Tampa Bay Regional Airport (13 nm W)
KINF - Inverness Airport (24 nm N)
KVDF - Tampa Executive Airport (25 nm S)
KPCM - Plant City Airport (25 nm S)
 
Loc | Ops | Rwys | IFR | FBO | Links
Com | Nav | Svcs | Stats | Notes


 
Area around 5FL0 (Dusty Airpatch Airport)
 
Road maps at: MapQuest Bing Google
 
Aerial photo
No photo
 
Sectional chart

 
Airport distance calculator
Flying to Dusty Airpatch Airport? Find the distance to fly.

From to 5FL0

Sunrise and sunset
Times for 20-Jan-2018
 Local
(UTC-5)
 Zulu
(UTC)
Morning civil twilight06:5711:57
Sunrise07:2312:23
Sunset17:5822:58
Evening civil twilight18:2323:23

Current date and time
Zulu (UTC)  20-Jan-2018 12:50:41
Local (UTC-5)  20-Jan-2018 07:50:41
 
METAR
KZPH 
12nm S 
201235Z AUTO 02003KT 10SM CLR 05/02 A3028 RMK AO2 T00450020
KBKV 
12nm W 
201153Z 00000KT 10SM CLR 02/01 A3028 RMK AO2 SLP254 T00220006 10028 20006 53003
TAF
KLAL 
29nm S 
201120Z 2012/2112 VRB02KT P6SM SCT250 FM201800 06005KT P6SM SCT030 BKN200 FM210600 VRB02KT 6SM BR SCT030 BKN200
KTPA 
31nm SW 
201120Z 2012/2118 05004KT P6SM SCT250 FM201400 08006KT P6SM BKN250 FM202000 24005KT P6SM SCT030 BKN200 FM210000 03005KT P6SM SCT025 OVC150 FM211400 10007KT P6SM SCT030 BKN250
KLEE 
32nm NE 
201132Z 2012/2112 00000KT P6SM BKN250 FM201500 11004KT P6SM FEW040 BKN120 FM210200 VRB02KT P6SM BKN100
NOTAMs
Click for the latest NOTAMs
NOTAMs are issued by the DoD/FAA and will open in a separate window not controlled by AirNav.

 

 
 

Would you like to see your business listed on this page?

 If your business provides an interesting product or service to pilots, flight crews, aircraft, or users of the Dusty Airpatch Airport, you should consider listing it here.  To start the listing process, click on the button below
 
Add a business
 

Other Pages about Dusty Airpatch Airport

Update a link
 
Copyright © AirNav, LLC. All rights reserved. Privacy Policy  Contact